Regional Weather Roundup
Issued by NWS

Home | Current Version | Previous Version | Graphics & Text | Print | Product List | Glossary On
Versions: 1 2 3 4 5 6 7 8 9 10 11 12 13 14 15 16 17 18 19 20 21 22 23 24 25 26 27 28 29 30 31 32 33 34 35 36 37 38 39 40 41 42 43 44 45 46 47 48 49 50
000
ASUS44 KMEG 282310
RWRTN
TENNESSEE HOURLY STATE WEATHER ROUNDUP
NATIONAL WEATHER SERVICE MEMPHIS TN
500 PM CST WED JAN 28 2015

TNZ002-004-019-021-049-052-054-088>092-290000-
WEST TENNESSEE

CITY           SKY/WX    TMP DP  RH WIND       PRES   REMARKS
MEMPHIS INTL   MOCLDY    59  31  34 S14       30.14S
NWS MEMPHIS      N/A     59 N/A N/A MISG        N/A
JACKSON        CLEAR     54  27  35 SE7       30.15F
DYERSBURG      CLEAR     54  25  32 SE7       30.14F
UNION CITY     CLEAR     48  30  49 S7        30.13F
PARIS          CLEAR     46  28  49 SE5       30.16S
LEXINGTON      CLEAR     52  27  37 S7        30.16F
SAVANNAH       CLEAR     52  28  40 S6        30.20S
$$

TNZ008-025-027-028-033-062-065-066-290000-
NORTH MIDDLE TENNESSEE

CITY           SKY/WX    TMP DP  RH WIND       PRES   REMARKS
NASHVILLE      PTCLDY    47  24  40 SE6       30.20F
CLARKSVILLE    PTCLDY    47  25  42 S7        30.17F
SMYRNA         CLEAR     47  21  35 CALM      30.21F
COOKEVILLE     CLEAR     43  23  45 S5        30.20F
CROSSVILLE     CLEAR     40   9  28 SE3       30.20F
$$

TNZ061-075-076-078-094-096-097-290000-
SOUTH MIDDLE TENNESSEE

CITY           SKY/WX    TMP DP  RH WIND       PRES   REMARKS
FAYETTEVILLE     N/A     46  27  46 MISG      30.19F
TULLAHOMA      CLEAR     48  21  34 SE3       30.20F
WINCHESTER     CLEAR     46  23  39 SE7       30.20F
MCMINNVILLE    CLEAR     48  23  37 CALM      30.20F
COLUMBIA       CLEAR     48  28  46 S5        30.18R
SHELBYVILLE    CLEAR     48  27  43 S3        30.20F
$$

TNZ017-018-042-046-047-290000-
NORTHEAST TENNESSEE

CITY           SKY/WX    TMP DP  RH WIND       PRES   REMARKS
TRI CITIES     PTCLDY    37  18  46 CALM      30.27S
ELIZABETHTON   CLEAR     28  21  74 CALM      30.26S
$$

TNZ012-013-036-069-073-074-290000-
CENTRAL EAST TENNESSEE

CITY           SKY/WX    TMP DP  RH WIND       PRES   REMARKS
KNOXVILLE      PTCLDY    41  19  41 CALM      30.25S
OAK RIDGE      CLEAR     41  17  38 CALM      30.26F
GATLINBURG     CLEAR     37  18  44 NE5       30.25S WCI  34
MORRISTOWN     CLEAR     37  19  48 E6        30.26S WCI  33
$$

TNZ083-085-099-290000-
SOUTHEAST TENNESSEE

CITY           SKY/WX    TMP DP  RH WIND       PRES   REMARKS
CHATTANOOGA    PTCLDY    46  14  27 N7        30.25F
$$

SKY/WX REPORTED AS FAIR MEANS FEW OR NO CLOUDS BELOW
12 THOUSAND FEET.



USA.gov is the U.S. government's official web portal to all federal, state and local government web resources and services.